Back to catalog

STARLINK-35414

AliveCommunicationsSSO
NORAD 65798·PAYLOAD·🇺🇸 United States

Launched Sep 26, 2025 from Vandenberg Space Force Base

Loading…

Next Passes (next 24 hours)

TLE

FreshSource: CelesTrak SupGP

Epoch: Sep 14, 2026, 22:58 UTC

1 65798C 25218H   26257.95743056  .00049275  00000+0  15298-2 0  2574
2 65798  97.2842 115.4711 0001760  98.3530  73.8934 15.33409695    11

Track STARLINK-35414 in real time with AllMySat

Download on the App Store